Regional Weather Roundup
Issued by NWS

Home | Current Version | Previous Version | Graphics & Text | Print | Product List | Glossary On
Versions: 1 2 3 4 5 6 7 8 9 10 11 12 13 14 15 16 17 18 19 20 21 22 23 24 25 26 27 28 29 30 31 32 33 34 35 36 37 38 39 40 41 42 43 44 45 46 47 48 49 50
443
ASUS45 KCYS 161010
RWRWY

WYOMING REGIONAL WEATHER ROUNDUP
NATIONAL WEATHER SERVICE CHEYENNE WY
300 AM MST MON JAN 16 2017

NOTE:  "FAIR" INDICATES FEW OR NO CLOUDS BELOW 12,000 FEET
WITH NO SIGNIFICANT WEATHER AND/OR OBSTRUCTIONS TO VISIBILITY.

WYZ001-161100-
YELLOWSTONE NATIONAL PARK

CITY           SKY/WX    TMP DP  RH WIND       PRES   REMARKS
LK YELLOWSTONE   N/A    -17 -21  82 CALM      30.16R
W YELLOWSTONE  NOT AVBL

$$
WYZ002>013-054>058-071-098>099-161100-
NORTHERN WYOMING

CITY           SKY/WX    TMP DP  RH WIND       PRES   REMARKS
JACKSON        FAIR     -17 -20  83 N6        30.21R WCI -31
CODY           FAIR       9   2  73 CALM      30.13R
GREYBULL       FAIR     -16 -21  78 NW7       30.21R WCI -32
WORLAND        FAIR      -8 -10  91 CALM      30.16S
SHERIDAN       FAIR      24   5  44 SW9       30.11R WCI  14
BUFFALO        FAIR      25   1  35 NW6       30.07R WCI  18
GILLETTE       FAIR      22   8  55 CALM      30.07R
HULETT         FAIR      14   5  67 S9        30.07R WCI   2
NEWCASTLE      FAIR      19  10  68 NW8       30.06R WCI   9

$$
WYZ014>020-022>026-101>103-161100-
CENTRAL WYOMING

CITY           SKY/WX    TMP DP  RH WIND       PRES   REMARKS
BIG PINEY      FAIR     -15 -18  86 CALM      30.10R
PINEDALE       FAIR     -20 -27  69 CALM      30.09S
DUBOIS         NOT AVBL
LANDER         FAIR       3  -1  83 CALM      30.11R
RIVERTON       FAIR      -3  -7  82 CALM      30.12S
CASPER         FAIR      13   8  81 W8        30.09R WCI   2
DOUGLAS        CLOUDY    24  17  74 NW15      30.07R WCI  11

$$
WYZ021-027>030-104>119-161100-
SOUTHERN WYOMING

CITY           SKY/WX    TMP DP  RH WIND       PRES   REMARKS
EVANSTON       FAIR       2  -3  80 E3        30.11S HAZE
ROCK SPRINGS   FAIR      -1  -5  82 NW8       30.11R WCI -15
RAWLINS        FAIR       9   3  77 NE5       30.06R WCI   1
LARAMIE        CLOUDY    19  16  88 N5        29.99R WCI  12
CHEYENNE       CLOUDY    30  20  66 N17       29.96S WCI  18
TORRINGTON     CLOUDY    34  26  72 NW9       30.00F WCI  27

$$




USA.gov is the U.S. government's official web portal to all federal, state and local government web resources and services.